Regional Weather Roundup
Issued by NWS

Home | Current Version | Previous Version | Graphics & Text | Print | Product List | Glossary On
Versions: 1 2 3 4 5 6 7 8 9 10 11 12 13 14 15 16 17 18 19 20 21 22 23 24 25 26 27 28 29 30 31 32 33 34 35 36 37 38 39 40 41 42 43 44 45 46 47 48 49 50
000
ASUS45 KABQ 282210
RWRNM
NEW MEXICO REGIONAL WEATHER ROUNDUP
NATIONAL WEATHER SERVICE ALBUQUERQUE NM
400 PM MDT THU MAY 28 2015

NOTE: "FAIR" MEANS FEW OR NO CLOUDS BELOW 12,000 FEET AGL WITH NO
       SIGNIFICANT WEATHER OR OBSTRUCTIONS TO VISION.

      THIS PRODUCT IS RELEASED AS TWO VERSIONS.  ONE VERSION NEAR
      THE TOP OF THE HOUR CONTAINING PRELIMINARY DATA FROM ALBUQUERQUE
      AND OTHER STATIONS.  A FINAL VERSION WITH ADDITIONAL DATA IS
      ISSUED ABOUT 10 MINUTES AFTER THE HOUR.

NMZ501-503-504-510>518-282300-
NORTHWEST PLATEAU/NORTHCENTRAL MOUNTAINS

CITY           SKY/WX    TMP DP  RH WIND       PRES   REMARKS
FARMINGTON     SUNNY     79  30  16 W15G24    30.05F
LOS ALAMOS     MOSUNNY   73  20  13 SW14G24   30.13F
SANTA FE       SUNNY     80  19  10 W20G29    30.06F
TAOS           MOSUNNY   73  27  17 W21G28    30.10F
ANGEL FIRE     FAIR      63  29  28 W10G36    30.18F

$$
NMZ402-403-502-505>509-282300-
WESTCENTRAL MOUNTAINS/SOUTHWEST MOUNTAINS

CITY           SKY/WX    TMP DP  RH WIND       PRES   REMARKS
GALLUP         SUNNY     77  19  11 SW16G22   30.13F
GRANTS         SUNNY     80   9   7 NW15G24   30.12F
SILVER CITY      N/A     84  16   8 W20       30.08S

$$
NMZ407-409-411-412-282300-
SOUTHERN DESERTS

CITY           SKY/WX    TMP DP  RH WIND       PRES   REMARKS
LORDSBURG      FAIR      88  19   8 NW7       29.99F
DEMING         SUNNY     90  16   6 SW8G21    29.98F
LAS CRUCES     SUNNY     90  13   6 W12G22    29.99F
HOLLOMAN AFB   SUNNY     90  15   6 W9        29.92F
ALAMOGORDO     SUNNY     90  18   7 NW8       29.94F
T OR C         MOSUNNY   87  19   8 MISG      29.96F

$$
NMZ519>523-282300-
CENTRAL VALLEYS/CENTRAL HIGHLANDS

CITY           SKY/WX    TMP DP  RH WIND       PRES   REMARKS
ALBUQUERQUE    MOSUNNY   82  25  12 S13       30.01F
DOUBLE EAGLE   MOSUNNY   82  25  12 SW20G31   30.05F
MORIARTY ARPT  FAIR      79  21  11 W12G25    30.08F
CLINES CORNERS SUNNY     77  20  12 W25       30.10F
BELEN          FAIR      83  24  11 E3        30.01F
SOCORRO        FAIR      87  20   8 NE3G18    29.96F

$$
NMZ524>526-539-540-282300-
SOUTHCENTRAL MOUNTAINS

CITY           SKY/WX    TMP DP  RH WIND       PRES   REMARKS
RUIDOSO        SUNNY     77  18  10 W18G29    30.12F

$$
NMZ527>531-282300-
NORTHEAST HIGHLANDS/NORTHEAST PLAINS

CITY           SKY/WX    TMP DP  RH WIND       PRES   REMARKS
LAS VEGAS      SUNNY     76  23  14 W20G31    30.06F
RATON          MOSUNNY   75  32  20 SW12G18   29.97F
CLAYTON        TSTM      54  47  77 S10       29.94S

$$
NMZ532>537-282300-
EASTCENTRAL PLAINS

CITY           SKY/WX    TMP DP  RH WIND       PRES   REMARKS
TUCUMCARI      MOSUNNY   82  50  32 S13       29.88F
CANNON AFB     HAIL      66  59  77 SE18G26   29.97F
CLOVIS AIRPORT CLOUDY    66  55  68 SE20        N/A

$$
NMZ028-029-538-282300-
SOUTHEAST PLAINS

CITY           SKY/WX    TMP DP  RH WIND       PRES   REMARKS
ROSWELL        SUNNY     90  52  27 E8        29.87F
ARTESIA        PTSUNNY   86  57  37 SE18      29.88F
CARLSBAD       PTSUNNY   82  61  48 SE25G33   29.87F
HOBBS          SUNNY     73  66  78 SE12      29.94F


$$


USA.gov is the U.S. government's official web portal to all federal, state and local government web resources and services.